Regional Weather Roundup
Issued by NWS Goodland, KS

Home | Current Version | Previous Version | Graphics & Text | Print | Product List | Glossary On
Versions: 1 2 3 4 5 6 7 8 9 10 11 12 13 14 15 16 17 18 19 20 21 22 23 24 25 26 27 28 29 30 31 32 33 34 35 36 37 38 39 40 41 42 43 44 45 46 47 48 49 50
000
ASUS43 KGLD 301608
RWRGLD

GOODLAND FORECAST AREA HOURLY WEATHER ROUNDUP
NATIONAL WEATHER SERVICE GOODLAND KS
1000 AM MDT SAT MAY 30 2015

...OFFICIAL OBSERVATIONS...

CITY           SKY/WX    TMP DP  RH WIND       PRES   REMARKS
GOODLAND KS    CLOUDY    51  43  74 N12       30.32R
HILL CITY KS   SUNNY     56  41  57 N16G24    30.28F
IMPERIAL NEB   SUNNY     53  39  59 N10       30.31F
MCCOOK NEB     SUNNY     56  38  50 N18G26    30.30F
AKRON CO       CLOUDY    50  45  83 SE7       30.31S
BURLINGTON CO  CLOUDY    50  45  83 N9        30.32S
LIMON CO       SUNNY     54  45  71 S7        30.31F
$$

...UNOFFICIAL OBSERVATIONS...

CITY           SKY/WX    TMP DP  RH WIND       PRES   REMARKS
COLBY KS       MOSUNNY   55  45  67 MISG      30.31F
GOVE KS          N/A     56  32  40 MISG        N/A
NORTON KS      SUNNY     55  34  44 N15G22    30.27F
SHARON SPRINGS   N/A     51  46  82 MISG        N/A
KIT CARSON CO    N/A     54  46  73 MISG        N/A
$$



USA.gov is the U.S. government's official web portal to all federal, state and local government web resources and services.